Date,TemperatureHighF,TemperatureAvgF,TemperatureLowF,DewpointHighF,DewpointAvgF,DewpointLowF,HumidityHigh,HumidityAvg,HumidityLow,PressureMaxIn,PressureMinIn,WindSpeedMaxMPH,WindSpeedAvgMPH,GustSpeedMaxMPH,PrecipitationSumIn
2013-1-1,35.2,30.1,23.6,23.0,20.5,19.0,84,68,55,29.72,29.14,7,2,0,0.00
2013-1-2,23.5,15.5,10.4,20.0,12.7,8.0,100,88,83,29.56,29.17,1,0,0,0.00
2013-1-3,18.4,13.2,8.6,14.0,9.8,6.0,90,86,81,29.67,29.56,1,0,0,0.00
2013-1-4,16.2,7.5,0.2,12.0,4.4,-3.0,97,87,83,29.86,29.65,1,0,0,0.00
2013-1-5,5.0,0.1,-4.3,2.0,-3.1,-8.0,88,86,83,29.86,29.43,2,0,0,0.00
2013-1-6,9.4,3.1,-3.4,7.0,0.1,-7.0,89,87,84,29.43,29.26,1,0,0,0.00
2013-1-7,7.5,-0.6,-9.9,5.0,-3.9,-14.0,90,86,82,29.55,29.19,1,0,0,0.00
2013-1-8,1.0,-6.4,-13.8,-2.0,-10.0,-18.0,86,84,81,30.15,29.56,0,0,0,0.00
2013-1-9,-0.9,-5.0,-8.6,-4.0,-8.6,-13.0,87,84,82,30.22,29.95,2,0,0,0.00
2013-1-10,12.6,5.3,-5.7,10.0,2.4,-9.0,90,87,83,30.12,29.93,0,0,0,0.00
2013-1-11,15.9,9.9,-0.9,14.0,7.4,-4.0,91,89,85,30.21,29.90,0,0,0,0.00
2013-1-12,24.6,17.6,13.1,22.0,15.6,11.0,100,91,87,30.20,29.72,0,0,0,0.00
2013-1-13,33.3,29.2,22.7,32.0,27.9,21.0,96,95,91,29.75,29.52,0,0,0,0.00
2013-1-14,35.5,31.6,27.5,34.0,30.3,24.0,97,95,80,29.84,29.22,3,0,0,0.00
2013-1-15,28.7,14.8,10.4,23.0,11.2,8.0,89,85,77,30.23,29.86,7,1,0,0.00
2013-1-16,10.0,5.1,-1.4,7.0,2.4,-5.0,90,88,85,30.24,29.87,1,0,0,0.00
2013-1-17,10.3,3.3,-8.4,6.0,-1.2,-13.0,89,82,72,30.21,29.83,5,0,0,0.00
2013-1-18,-9.3,-15.4,-22.5,-14.0,-19.8,-27.0,83,80,76,30.48,30.21,2,0,0,0.00
2013-1-19,6.2,-1.2,-12.2,0.0,-7.4,-17.0,83,75,68,30.49,30.15,2,0,0,0.00
2013-1-20,11.9,8.9,4.0,9.0,4.4,-4.0,89,82,68,30.14,30.05,4,1,0,0.00
2013-1-21,11.7,9.0,0.7,9.0,4.5,-3.0,89,82,77,30.17,30.05,3,1,0,0.00
2013-1-22,8.5,4.7,0.8,3.0,-0.1,-4.0,84,80,77,30.05,29.78,4,1,0,0.00
2013-1-23,10.1,6.8,4.3,4.0,0.1,-5.0,80,74,65,29.78,29.65,6,2,0,0.00
2013-1-24,4.4,-1.4,-10.0,-3.0,-8.4,-17.0,81,72,63,29.89,29.71,7,1,0,0.00
2013-1-25,-10.8,-23.9,-32.8,-17.0,-28.9,-38.0,80,77,73,30.11,29.89,0,0,0,0.00
2013-1-26,-25.3,-32.5,-38.3,-29.0,-38.0,-44.0,89,74,71,30.26,30.11,1,0,0,0.00
2013-1-27,-31.2,-37.7,-39.3,-37.0,-43.5,-45.0,74,71,70,30.71,30.27,0,0,0,0.00
2013-1-28,-22.9,-34.8,-39.3,-27.0,-40.3,-45.0,92,73,70,30.74,30.16,2,0,0,0.00
2013-1-29,-4.4,-11.4,-25.6,-9.0,-16.1,-31.0,83,79,75,30.15,29.96,1,0,0,0.00
2013-1-30,9.2,2.0,-4.7,5.0,-3.1,-10.0,83,79,75,30.00,29.73,3,0,0,0.00
2013-1-31,12.1,8.7,6.3,8.0,5.0,1.0,88,84,79,30.14,29.76,1,0,0,0.00
2013-2-1,7.5,2.2,-4.5,4.0,-0.9,-8.0,89,87,84,30.20,29.92,1,0,0,0.00
2013-2-2,15.8,8.2,3.8,10.0,4.5,1.0,90,85,76,29.92,29.55,1,0,0,0.00
2013-2-3,8.5,6.1,2.1,6.0,3.0,-1.0,97,87,84,29.55,29.36,1,0,0,0.00
2013-2-4,14.6,10.2,4.1,11.0,7.3,1.0,90,88,86,29.69,29.52,0,0,0,0.00
2013-2-5,5.6,0.8,-3.4,3.0,-2.1,-7.0,88,87,85,29.70,29.65,2,0,0,0.00
2013-2-6,4.0,-0.3,-4.3,1.0,-3.4,-8.0,88,86,85,29.78,29.64,0,0,0,0.00
2013-2-7,7.4,-0.8,-9.7,5.0,-4.0,-14.0,89,86,82,29.75,29.36,0,0,0,0.00
2013-2-8,7.7,3.2,-2.1,5.0,-0.0,-6.0,88,86,83,29.86,29.39,0,0,0,0.00
2013-2-9,30.6,14.3,-5.3,23.0,9.7,-9.0,91,82,74,29.84,29.06,9,1,0,0.00
2013-2-10,29.5,18.0,9.2,23.0,14.8,6.0,92,87,75,29.51,28.96,2,0,0,0.00
2013-2-11,20.6,15.2,3.7,17.0,12.4,1.0,91,88,85,29.75,29.52,1,0,0,0.00
2013-2-12,11.1,0.7,-5.0,9.0,-2.4,-9.0,90,86,84,29.83,29.75,1,0,0,0.00
2013-2-13,10.1,-0.7,-8.2,7.0,-3.9,-12.0,91,86,83,29.83,29.79,1,0,0,0.00
2013-2-14,22.5,15.7,6.4,17.0,11.2,3.0,90,82,72,29.79,29.36,5,0,0,0.00
2013-2-15,21.5,8.2,-3.0,17.0,4.3,-7.0,89,84,79,30.09,29.46,2,0,0,0.00
2013-2-16,1.8,-5.5,-14.0,-3.0,-9.2,-18.0,87,84,79,30.16,29.93,2,0,0,0.00
2013-2-17,-1.8,-4.9,-7.9,-6.0,-8.9,-12.0,85,82,78,30.22,29.89,2,0,0,0.00
2013-2-18,-6.1,-16.8,-25.0,-11.0,-21.3,-30.0,82,79,77,30.33,30.21,1,0,0,0.00
2013-2-19,-1.5,-17.3,-31.2,-9.0,-23.0,-36.0,83,75,71,30.21,29.66,2,0,0,0.00
2013-2-20,3.9,-3.5,-14.1,-4.0,-10.2,-19.0,81,73,66,29.65,29.43,4,1,0,0.00
2013-2-21,3.0,-0.3,-4.2,-3.0,-5.4,-9.0,83,79,70,29.48,29.38,4,1,0,0.00
2013-2-22,-3.9,-7.4,-15.5,-8.0,-12.3,-20.0,83,79,74,29.68,29.43,1,0,0,0.00
2013-2-23,5.7,-3.0,-12.0,-2.0,-8.9,-17.0,82,76,70,29.59,29.36,3,0,0,0.00
2013-2-24,-0.3,-7.8,-15.6,-6.0,-12.8,-20.0,84,79,72,29.75,29.39,1,0,0,0.00
2013-2-25,11.5,-3.5,-12.8,4.0,-8.5,-17.0,84,80,70,29.81,29.75,1,0,0,0.00
2013-2-26,21.9,4.4,-9.3,11.0,-1.1,-13.0,87,78,60,29.80,29.50,2,0,0,0.00
2013-2-27,30.7,14.8,2.3,18.0,7.9,-1.0,98,75,53,29.50,29.33,2,0,0,0.00
2013-2-28,25.3,11.5,1.0,15.0,6.1,-3.0,88,79,63,29.50,29.39,1,0,0,0.00
2013-3-1,13.8,9.3,5.1,10.0,5.3,1.0,89,84,79,30.03,29.51,2,0,0,0.00
2013-3-2,14.5,4.4,-3.7,10.0,0.9,-7.0,92,85,79,30.19,30.03,0,0,0,0.00
2013-3-3,14.6,-0.2,-11.1,8.0,-4.3,-15.0,87,83,74,30.45,30.19,0,0,0,0.00
2013-3-4,21.2,3.5,-10.8,13.0,-1.0,-15.0,89,82,70,30.50,30.30,1,0,0,0.00
2013-3-5,27.3,12.0,2.8,15.0,6.5,0.0,88,79,59,30.30,29.94,1,0,0,0.00
2013-3-6,13.3,5.7,-3.2,6.0,1.0,-7.0,90,81,71,29.96,29.88,1,0,0,0.00
2013-3-7,37.9,19.4,0.1,22.0,10.4,-3.0,88,71,51,29.88,29.41,6,1,0,0.00
2013-3-8,42.4,30.4,19.6,27.0,21.2,15.0,85,70,52,29.61,29.46,4,0,0,0.00
2013-3-9,35.1,25.4,16.0,26.0,19.5,11.0,92,78,64,30.00,29.62,5,0,0,0.00
2013-3-10,27.6,19.6,9.5,26.0,15.6,6.0,93,85,71,30.31,30.01,5,0,0,0.00
2013-3-11,21.8,10.1,0.8,14.0,5.7,-2.0,88,82,69,30.60,30.31,2,0,0,0.00
2013-3-12,21.0,6.0,-4.8,7.0,-0.2,-9.0,89,77,48,30.61,30.37,0,0,0,0.00
2013-3-13,15.4,1.0,-12.1,1.0,-9.3,-17.0,85,64,41,30.37,30.26,13,3,0,0.00
2013-3-14,17.9,5.7,-4.0,-2.0,-10.4,-17.0,55,48,39,30.27,30.17,13,4,0,0.00
2013-3-15,22.2,9.3,-0.7,-2.0,-8.3,-13.0,57,46,32,30.20,29.95,11,3,0,0.00
2013-3-16,25.3,12.1,2.8,6.0,-3.1,-10.0,68,51,41,30.20,30.02,6,1,0,0.00
2013-3-17,15.0,3.1,-7.4,1.0,-4.5,-12.0,83,71,54,30.33,30.18,1,0,0,0.00
2013-3-18,17.7,4.2,-5.1,2.0,-3.7,-9.0,92,71,50,30.18,30.02,2,0,0,0.00
2013-3-19,14.1,1.3,-12.2,3.0,-6.8,-17.0,81,70,53,30.18,30.06,1,0,0,0.00
2013-3-20,11.2,-0.2,-11.4,0.0,-8.0,-17.0,77,70,59,30.08,29.95,3,0,0,0.00
2013-3-21,21.9,10.3,1.5,9.0,3.0,-2.0,86,74,55,30.13,30.02,4,1,0,0.00
2013-3-22,30.5,21.2,12.6,15.0,7.9,2.0,69,57,48,30.04,29.68,8,2,0,0.00
2013-3-23,22.2,4.4,-5.4,18.0,-3.4,-11.0,85,70,56,30.09,29.71,9,1,0,0.00
2013-3-24,10.1,-0.8,-13.5,3.0,-6.8,-18.0,85,76,58,30.07,29.80,1,0,0,0.00
2013-3-25,10.1,5.8,3.1,4.0,0.9,-3.0,86,80,70,29.80,29.65,3,0,0,0.00
2013-3-26,5.1,-0.3,-10.3,-3.0,-7.9,-16.0,81,71,54,30.24,29.80,4,1,0,0.00
2013-3-27,12.4,-5.0,-21.1,-3.0,-13.5,-26.0,80,68,48,30.31,30.16,1,0,0,0.00
2013-3-28,32.8,7.5,-15.9,13.0,-2.7,-21.0,82,66,41,30.16,29.90,1,0,0,0.00
2013-3-29,43.1,27.0,12.5,23.0,13.8,5.0,75,59,41,29.91,29.83,1,0,0,0.00
2013-3-30,37.8,22.1,6.2,20.0,12.3,3.0,86,67,46,30.18,29.90,0,0,0,0.00
2013-3-31,40.4,30.4,20.2,29.0,21.9,15.0,87,71,59,30.24,30.13,3,0,0,0.00
2013-4-1,38.7,29.8,21.2,29.0,23.3,17.0,100,78,54,30.13,30.03,4,0,0,0.00
2013-4-2,36.8,25.0,13.1,21.0,15.4,10.0,87,68,52,30.20,30.07,3,0,0,0.00
2013-4-3,31.3,23.7,17.3,14.0,8.9,1.0,69,54,39,30.47,30.20,8,2,0,0.00
2013-4-4,28.8,19.8,10.9,5.0,1.1,-2.0,58,45,30,30.48,30.09,11,3,0,0.00
2013-4-5,16.9,13.1,5.4,2.0,-3.2,-8.0,57,48,43,30.09,29.75,9,4,0,0.00
2013-4-6,19.0,8.3,-2.5,4.0,-4.5,-10.0,74,57,42,29.75,29.61,4,0,0,0.00
2013-4-7,10.5,6.9,1.2,5.0,1.3,-4.0,85,78,55,29.93,29.66,2,0,0,0.00
2013-4-8,14.3,4.0,-9.7,10.0,-0.2,-14.0,92,83,77,29.95,29.49,2,0,0,0.00
2013-4-9,14.0,9.8,7.1,9.0,5.9,4.0,87,84,77,29.48,29.16,3,1,0,0.00
2013-4-10,13.9,7.2,-2.6,3.0,-1.1,-9.0,82,69,54,29.98,29.47,3,1,0,0.00
2013-4-11,16.2,2.5,-11.3,3.0,-6.2,-16.0,82,68,49,30.26,29.98,3,0,0,0.00
2013-4-12,22.3,7.2,-7.9,7.0,-1.8,-12.0,85,68,52,30.36,30.27,1,0,0,0.00
2013-4-13,25.1,10.6,-6.3,8.0,0.2,-11.0,83,65,47,30.49,30.37,2,0,0,0.00
2013-4-14,28.7,17.4,4.7,18.0,8.5,-2.0,75,68,58,30.58,30.50,4,1,0,0.00
2013-4-15,30.3,22.5,8.8,16.0,9.4,5.0,86,59,41,30.54,30.45,7,1,0,0.00
2013-4-16,30.1,21.7,9.1,16.0,9.1,3.0,79,59,46,30.45,30.25,4,0,0,0.00
2013-4-17,29.4,23.1,8.6,12.0,9.6,3.0,80,57,47,30.38,30.25,9,2,0,0.00
2013-4-18,30.1,24.0,16.7,12.0,7.9,4.0,63,51,42,30.43,30.37,11,2,0,0.00
2013-4-19,43.1,26.3,9.8,19.0,11.1,4.0,78,55,28,30.49,30.40,2,0,0,0.00
2013-4-20,42.0,29.5,14.1,21.0,13.7,8.0,81,54,35,30.41,30.27,3,0,0,0.00
2013-4-21,46.0,30.1,14.8,21.0,16.2,11.0,85,59,36,30.36,30.31,1,0,0,0.00
2013-4-22,47.4,32.0,17.1,22.0,17.9,12.0,86,59,34,30.48,30.36,2,0,0,0.00
2013-4-23,46.5,34.9,22.1,25.0,20.1,16.0,80,57,36,30.39,30.18,5,1,0,0.00
2013-4-24,37.0,33.9,29.0,32.0,27.8,22.0,94,79,59,30.17,29.97,7,1,0,0.00
2013-4-25,34.0,27.6,21.6,24.0,6.7,-1.0,83,42,32,30.10,29.99,5,2,0,0.00
2013-4-26,32.6,23.5,12.1,24.0,14.4,6.0,90,69,52,30.00,29.61,3,0,0,0.00
2013-4-27,28.6,25.4,18.8,23.0,10.0,-3.0,93,56,27,30.15,29.67,11,2,0,0.00
2013-4-28,36.8,22.7,8.0,21.0,8.2,-3.0,70,55,39,30.19,30.09,5,1,0,0.00
2013-4-29,33.4,28.4,20.5,29.0,22.3,14.0,93,78,67,30.13,30.07,3,0,0,0.00
2013-4-30,38.2,31.6,27.0,30.0,27.5,24.0,94,85,63,30.07,29.86,4,1,0,0.00
2013-5-1,36.1,29.7,24.7,26.0,22.0,14.0,91,74,55,29.86,29.65,10,2,0,0.00
2013-5-2,38.1,29.6,21.8,26.0,19.8,13.0,80,67,55,29.90,29.71,3,0,0,0.00
2013-5-3,40.2,32.4,27.1,32.0,28.0,23.0,92,84,67,29.94,29.82,6,1,0,0.00
2013-5-4,35.7,28.9,21.7,27.0,23.2,19.0,91,79,62,29.98,29.89,2,0,0,0.00
2013-5-5,40.3,32.4,24.0,23.0,20.6,16.0,83,64,39,30.13,29.99,3,1,0,0.00
2013-5-6,43.9,33.3,20.8,24.0,19.2,15.0,81,58,35,30.19,30.10,4,1,0,0.00
2013-5-7,46.0,36.9,24.8,26.0,22.6,19.0,84,58,40,30.25,30.19,3,1,0,0.00
2013-5-8,50.7,39.9,25.9,28.0,23.9,19.0,77,55,34,30.31,30.22,4,0,0,0.00
2013-5-9,59.9,45.3,29.1,31.0,25.2,22.0,79,49,27,30.35,30.16,5,0,0,0.00
2013-5-10,60.0,49.5,37.7,33.0,28.5,25.0,68,46,27,30.19,29.91,4,0,0,0.00
2013-5-11,60.4,49.8,38.0,34.0,31.0,28.0,74,50,33,29.91,29.63,4,0,0,0.00
2013-5-12,53.5,45.2,36.4,34.0,31.2,28.0,79,59,42,29.63,29.44,8,1,0,0.00
2013-5-13,38.5,30.9,22.7,29.0,12.0,5.0,68,46,33,29.67,29.49,6,1,0,0.00
2013-5-14,45.7,34.9,26.3,22.0,17.1,13.0,70,49,36,29.67,29.61,3,0,0,0.00
2013-5-15,51.1,38.7,24.9,26.0,21.0,18.0,81,52,32,29.69,29.60,4,0,0,0.00
2013-5-16,52.5,42.9,29.8,29.0,25.0,21.0,71,51,31,29.65,29.38,6,1,0,0.00
2013-5-17,44.3,35.5,26.6,34.0,29.9,24.0,92,81,56,29.66,29.35,4,1,0,0.00
2013-5-18,35.9,28.2,22.6,23.0,13.5,9.0,89,56,35,30.19,29.66,7,2,0,0.00
2013-5-19,47.9,36.3,23.9,21.0,14.5,9.0,63,42,28,30.55,30.20,5,0,0,0.00
2013-5-20,56.2,43.1,28.7,23.0,19.0,16.0,68,41,22,30.62,30.40,6,1,0,0.00
2013-5-21,64.0,49.4,31.7,27.0,21.2,16.0,67,37,17,30.43,30.09,6,1,0,0.00
2013-5-22,67.7,53.8,40.2,32.0,27.5,22.0,61,38,21,30.09,29.92,4,0,0,0.00
2013-5-23,63.8,53.0,40.1,43.0,36.5,30.0,71,55,42,30.07,29.97,5,0,0,0.00
2013-5-24,70.7,58.0,41.5,44.0,39.6,34.0,89,55,29,30.10,29.92,4,0,0,0.00
2013-5-25,77.9,64.6,49.7,37.0,34.0,30.0,53,34,18,29.94,29.76,4,1,0,0.00
2013-5-26,79.9,64.8,45.6,45.0,36.1,32.0,66,37,20,29.83,29.72,3,0,0,0.00
2013-5-27,80.5,68.3,54.4,47.0,41.5,39.0,61,40,26,29.83,29.69,4,0,0,0.00
2013-5-28,82.7,68.2,51.6,46.0,41.7,38.0,70,41,22,29.74,29.62,6,0,0,0.00
2013-5-29,83.8,71.0,53.3,45.0,39.4,33.0,70,36,17,29.65,29.58,5,0,0,0.00
2013-5-30,85.8,71.1,55.1,48.0,39.6,29.0,56,35,13,29.79,29.64,3,0,0,0.00
2013-5-31,83.1,68.9,54.2,48.0,42.1,30.0,70,43,15,29.91,29.79,3,0,0,0.00
2013-6-1,76.6,67.4,53.3,44.0,40.3,36.0,63,39,26,30.02,29.91,7,1,0,0.00
2013-6-2,81.5,67.5,51.0,49.0,43.7,39.0,78,45,26,30.00,29.80,7,0,0,0.00
2013-6-3,63.5,57.8,52.2,50.0,48.2,46.0,88,71,55,29.87,29.61,5,0,0,0.00
2013-6-4,65.4,55.3,49.5,50.0,48.0,43.0,95,78,45,29.61,29.51,5,0,0,0.00
2013-6-5,59.2,52.5,47.8,52.0,47.6,44.0,92,83,72,29.82,29.58,4,0,0,0.00
2013-6-6,65.0,55.9,45.6,50.0,46.7,43.0,94,73,48,29.85,29.74,8,0,0,0.00
2013-6-7,70.0,60.4,47.0,49.0,45.1,38.0,93,60,34,29.87,29.76,4,0,0,0.00
2013-6-8,75.7,63.8,53.1,49.0,46.2,43.0,80,55,32,30.06,29.88,4,0,0,0.00
2013-6-9,68.2,60.8,51.0,49.0,45.4,41.0,86,59,42,30.17,30.06,6,0,0,0.00
2013-6-10,62.7,55.5,49.9,49.0,44.7,42.0,91,68,49,30.23,30.18,4,0,0,0.00
2013-6-11,70.0,57.6,44.2,45.0,42.7,39.0,88,60,35,30.24,30.08,5,0,0,0.00
2013-6-12,71.5,62.2,49.2,45.0,36.1,31.0,68,40,23,30.10,30.01,7,1,0,0.00
2013-6-13,81.0,66.6,49.4,43.0,38.0,30.0,67,38,18,30.09,30.00,3,0,0,0.00
2013-6-14,85.4,71.0,52.3,47.0,41.6,36.0,68,38,19,30.13,30.04,2,0,0,0.00
2013-6-15,88.4,71.5,53.9,53.0,45.1,41.0,66,41,22,30.20,30.09,1,0,0,0.00
2013-6-16,89.4,76.4,61.2,56.0,53.4,50.0,77,47,31,30.20,30.08,5,1,0,0.00
2013-6-17,85.6,77.3,63.9,56.0,44.1,33.0,75,35,15,30.15,30.03,7,1,0,0.00
2013-6-18,89.6,76.9,63.9,48.0,43.8,40.0,46,32,21,30.05,29.81,2,0,0,0.00
2013-6-19,89.7,78.9,66.6,50.0,45.4,41.0,47,32,19,29.84,29.73,4,0,0,0.00
2013-6-20,88.1,75.1,59.5,55.0,47.4,41.0,73,41,20,29.87,29.71,3,0,0,0.00
2013-6-21,76.9,66.8,59.9,60.0,52.8,43.0,87,62,35,29.86,29.72,3,0,0,0.00
2013-6-22,77.1,66.0,52.6,50.0,44.9,41.0,77,49,31,29.85,29.65,3,0,0,0.00
2013-6-23,86.8,71.5,55.1,53.0,45.2,36.0,71,43,18,29.66,29.52,5,0,0,0.00
2013-6-24,88.0,77.4,61.6,53.0,48.8,43.0,65,38,22,29.60,29.52,5,1,0,0.00
2013-6-25,90.8,80.4,65.0,58.0,53.5,50.0,71,41,27,29.61,29.53,9,1,0,0.00
2013-6-26,94.2,81.5,68.8,57.0,54.6,53.0,58,41,26,29.64,29.58,5,0,0,0.00
2013-6-27,84.7,74.2,66.5,63.0,60.2,55.0,85,63,44,29.92,29.64,3,0,0,0.00
2013-6-28,82.3,73.2,64.7,61.0,57.1,54.0,75,59,40,29.99,29.92,1,0,0,0.00
2013-6-29,79.6,71.1,61.9,60.0,58.4,57.0,89,66,48,29.95,29.84,1,0,0,0.00
2013-6-30,84.7,73.7,62.1,61.0,55.0,48.0,72,53,37,29.84,29.57,4,0,0,0.00
2013-7-1,83.3,70.1,63.3,52.0,48.9,41.0,63,48,31,29.59,29.39,3,0,0,0.00
2013-7-2,76.1,62.7,53.2,53.0,46.4,41.0,86,58,32,29.68,29.48,3,0,0,0.00
2013-7-3,69.8,61.0,50.6,52.0,46.5,42.0,88,61,38,29.87,29.69,2,0,0,0.00
2013-7-4,69.2,60.3,51.6,50.0,45.0,41.0,79,59,39,29.97,29.83,4,0,0,0.00
2013-7-5,69.0,58.9,47.6,51.0,46.9,43.0,93,67,45,30.02,29.91,2,0,0,0.00
2013-7-6,76.2,63.1,48.9,51.0,46.4,43.0,83,57,35,29.92,29.69,2,0,0,0.00
2013-7-7,74.5,65.8,51.5,51.0,46.8,44.0,80,52,35,29.69,29.47,6,0,0,0.00
2013-7-8,65.2,58.0,52.7,56.0,50.9,47.0,95,78,56,29.68,29.50,2,0,0,0.00
2013-7-9,66.8,58.0,51.2,54.0,50.8,49.0,95,78,60,29.96,29.69,3,0,0,0.00
2013-7-10,60.4,55.0,51.5,52.0,50.2,48.0,96,84,69,30.02,29.95,7,0,0,0.00
2013-7-11,67.6,59.7,52.3,54.0,51.4,48.0,96,76,52,30.05,30.00,2,0,0,0.00
2013-7-12,81.3,66.7,51.4,50.0,44.8,36.0,81,50,22,30.02,29.91,5,0,0,0.00
2013-7-13,85.2,72.4,55.8,57.0,46.3,40.0,77,42,23,29.98,29.92,2,0,0,0.00
2013-7-14,87.9,73.9,57.6,57.0,51.7,47.0,72,48,30,30.07,29.95,2,0,0,0.00
2013-7-15,82.9,71.7,63.2,57.0,54.1,51.0,76,56,36,30.14,30.04,6,0,0,0.00
2013-7-16,70.3,65.6,62.1,57.0,54.5,50.0,81,68,59,30.13,30.06,1,0,0,0.00
2013-7-17,72.4,64.5,59.0,55.0,53.1,49.0,86,68,47,30.07,30.00,3,0,0,0.00
2013-7-18,73.1,63.6,56.7,58.0,54.2,50.0,94,74,44,30.10,29.99,4,0,0,0.00
2013-7-19,62.1,59.6,57.4,58.0,57.1,53.0,97,91,82,30.08,30.02,2,0,0,0.00
2013-7-20,64.1,57.8,53.6,56.0,53.3,52.0,96,85,66,30.08,30.05,2,0,0,0.00
2013-7-21,69.7,61.4,52.9,55.0,52.2,50.0,91,73,53,30.13,30.06,3,0,0,0.00
2013-7-22,75.6,62.3,49.1,57.0,51.5,47.0,93,70,47,30.19,30.06,3,0,0,0.00
2013-7-23,81.5,67.5,55.9,59.0,55.2,52.0,87,67,41,30.09,29.97,1,0,0,0.00
2013-7-24,74.9,66.7,58.2,63.0,58.0,55.0,92,74,57,29.99,29.92,5,0,0,0.00
2013-7-25,76.0,66.2,58.7,58.0,55.2,51.0,89,69,46,30.02,29.93,3,0,0,0.00
2013-7-26,75.8,64.8,52.1,57.0,51.6,48.0,87,65,43,30.14,30.02,7,0,0,0.00
2013-7-27,82.9,69.4,55.3,60.0,56.3,53.0,91,65,42,30.21,30.14,4,0,0,0.00
2013-7-28,89.0,73.1,57.7,61.0,56.4,54.0,87,59,31,30.16,29.99,3,0,0,0.00
2013-7-29,80.5,72.7,63.5,59.0,56.2,52.0,79,58,37,30.08,30.01,1,0,0,0.00
2013-7-30,78.0,67.2,56.4,57.0,53.8,52.0,88,64,41,30.16,30.06,6,0,0,0.00
2013-7-31,83.8,68.4,52.9,57.0,53.0,50.0,88,61,35,30.14,29.97,1,0,0,0.00
2013-8-1,85.3,73.6,56.3,56.0,52.3,50.0,82,51,30,29.99,29.76,2,0,0,0.00
2013-8-2,84.9,72.9,60.8,56.0,51.1,46.0,74,49,28,29.81,29.66,0,0,0,0.00
2013-8-3,83.1,68.8,57.7,55.0,49.0,46.0,73,51,28,29.68,29.59,2,0,0,0.00
2013-8-4,77.5,66.8,57.1,52.0,48.2,45.0,74,53,34,29.86,29.68,3,0,0,0.00
2013-8-5,76.4,64.6,50.9,54.0,50.0,47.0,93,63,36,29.90,29.81,2,0,0,0.00
2013-8-6,83.3,68.4,51.7,54.0,48.3,43.0,82,53,26,29.91,29.75,2,0,0,0.00
2013-8-7,86.0,69.5,52.6,52.0,48.8,45.0,80,51,24,29.77,29.55,4,0,0,0.00
2013-8-8,82.2,68.8,57.1,52.0,47.4,42.0,78,50,27,29.63,29.55,2,0,0,0.00
2013-8-9,71.8,64.0,55.4,55.0,48.7,44.0,77,59,43,29.65,29.59,2,0,0,0.00
2013-8-10,70.9,62.5,54.4,54.0,50.1,47.0,83,65,46,29.94,29.65,1,0,0,0.00
2013-8-11,76.2,62.5,49.2,54.0,49.0,45.0,87,65,39,30.02,29.89,3,0,0,0.00
2013-8-12,75.8,63.9,54.2,59.0,55.5,52.0,91,75,56,30.02,29.92,1,0,0,0.00
2013-8-13,78.3,64.7,53.8,62.0,56.8,52.0,94,77,54,29.95,29.77,1,0,0,0.00
2013-8-14,70.6,63.7,55.9,59.0,55.2,52.0,95,75,56,29.87,29.77,1,0,0,0.00
2013-8-15,64.6,58.7,54.7,61.0,55.2,50.0,95,88,79,29.82,29.65,3,0,0,0.00
2013-8-16,68.2,60.3,53.3,59.0,55.4,53.0,98,85,62,29.67,29.58,2,0,0,0.00
2013-8-17,73.2,61.2,49.2,56.0,52.2,48.0,95,74,47,29.59,29.45,5,0,0,0.00
2013-8-18,68.3,61.8,53.3,58.0,53.3,50.0,89,74,60,29.51,29.45,4,0,0,0.00
2013-8-19,66.6,58.6,52.0,55.0,51.7,49.0,93,79,53,29.61,29.50,2,0,0,0.00
2013-8-20,56.9,52.7,47.4,53.0,51.1,46.0,97,94,85,29.75,29.61,1,0,0,0.00
2013-8-21,62.6,52.5,45.9,48.0,46.0,41.0,97,81,53,29.79,29.67,1,0,0,0.00
2013-8-22,65.6,54.4,44.4,54.0,46.7,41.0,94,76,55,29.68,29.55,3,0,0,0.00
2013-8-23,56.2,53.3,50.0,55.0,51.3,45.0,97,93,75,29.66,29.49,3,0,0,0.00
2013-8-24,59.1,51.0,44.7,46.0,39.7,34.0,92,68,42,29.91,29.66,7,1,0,0.00
2013-8-25,60.8,48.5,34.4,37.0,34.6,31.0,90,62,37,29.91,29.71,3,0,0,0.00
2013-8-26,63.8,51.9,39.2,38.0,35.6,33.0,81,56,34,29.81,29.73,5,0,0,0.00
2013-8-27,64.1,51.5,39.3,51.0,40.6,35.0,86,67,47,29.80,29.61,1,0,0,0.00
2013-8-28,58.4,53.3,48.5,50.0,46.9,44.0,95,80,59,29.69,29.62,0,0,0,0.00
2013-8-29,55.5,51.3,48.3,51.0,48.1,45.0,96,88,80,29.83,29.62,2,0,0,0.00
2013-8-30,56.6,51.3,48.0,50.0,45.8,39.0,98,83,57,29.94,29.83,1,0,0,0.00
2013-8-31,51.2,45.8,40.9,40.0,34.6,29.0,82,66,45,29.97,29.90,3,0,0,0.00
2013-9-1,51.5,44.6,37.4,42.0,35.6,30.0,88,71,59,29.90,29.65,2,0,0,0.00
2013-9-2,59.8,52.1,45.3,54.0,48.6,42.0,96,88,79,29.65,29.35,2,0,0,0.00
2013-9-3,68.2,56.8,48.4,56.0,50.4,47.0,96,81,53,29.39,29.15,3,0,0,0.00
2013-9-4,59.6,51.7,44.2,53.0,47.9,43.0,96,87,70,29.63,29.32,2,0,0,0.00
2013-9-5,60.5,50.8,41.7,50.0,45.2,41.0,97,82,58,29.94,29.64,3,0,0,0.00
2013-9-6,52.6,46.7,38.9,48.0,43.6,37.0,95,89,79,29.97,29.44,5,0,0,0.00
2013-9-7,53.9,47.7,41.6,51.0,46.1,41.0,97,94,86,29.65,29.44,0,0,0,0.00
2013-9-8,53.5,49.6,46.4,52.0,48.4,46.0,98,95,91,29.76,29.44,1,0,0,0.00
2013-9-9,60.8,51.9,42.6,49.0,46.2,42.0,98,82,63,29.79,29.65,1,0,0,0.00
2013-9-10,68.0,56.0,46.1,49.0,45.5,42.0,89,69,46,29.67,29.61,2,0,0,0.00
2013-9-11,53.1,48.0,44.8,49.0,46.0,42.0,97,93,84,29.79,29.54,2,0,0,0.00
2013-9-12,59.7,49.8,40.4,50.0,46.0,40.0,98,87,68,29.92,29.79,2,0,0,0.00
2013-9-13,51.5,46.1,40.2,49.0,44.2,39.0,96,93,87,29.92,29.81,2,0,0,0.00
2013-9-14,53.4,47.8,38.6,48.0,43.6,35.0,97,86,61,30.05,29.92,1,0,0,0.00
2013-9-15,53.3,40.7,30.0,39.0,34.5,29.0,97,80,52,30.11,29.95,1,0,0,0.00
2013-9-16,53.7,42.4,31.5,32.0,29.7,26.0,89,64,38,29.95,29.67,9,1,0,0.00
2013-9-17,43.5,38.2,31.9,30.0,26.1,23.0,73,62,53,29.67,29.61,5,0,0,0.00
2013-9-18,38.4,34.4,31.1,33.0,30.7,29.0,94,86,72,29.73,29.64,1,0,0,0.00
2013-9-19,40.9,33.5,27.4,31.0,28.6,26.0,94,83,63,29.71,29.58,2,0,0,0.00
2013-9-20,38.5,30.1,24.0,30.0,26.3,23.0,96,86,62,29.58,29.20,1,0,0,0.00
2013-9-21,40.8,32.8,24.5,26.0,22.9,20.0,83,68,52,29.22,29.12,3,0,0,0.00
2013-9-22,33.5,31.6,29.2,31.0,27.3,22.0,94,84,68,29.51,29.22,3,0,0,0.00
2013-9-23,37.8,30.6,24.0,29.0,26.3,23.0,95,85,60,29.87,29.51,2,0,0,0.00
2013-9-24,40.0,34.3,28.6,29.0,26.6,24.0,93,74,57,30.02,29.73,5,0,0,0.00
2013-9-25,56.7,45.8,36.6,42.0,34.2,26.0,83,65,51,29.73,29.36,2,0,0,0.00
2013-9-26,46.4,41.2,34.8,41.0,37.2,33.0,95,86,75,29.62,29.30,2,0,0,0.00
2013-9-27,56.2,45.6,38.1,39.0,36.2,34.0,86,71,49,29.29,29.13,3,0,0,0.00
2013-9-28,46.9,39.9,35.3,39.0,35.8,32.0,93,85,72,29.31,29.23,1,0,0,0.00
2013-9-29,42.5,38.5,35.6,40.0,37.0,35.0,97,94,88,29.61,29.32,0,0,0,0.00
2013-9-30,40.9,38.6,32.6,34.0,30.6,29.0,89,73,64,29.82,29.61,3,0,0,0.00
2013-10-1,38.1,33.4,30.3,33.0,31.0,29.0,96,91,80,29.92,29.82,0,0,0,0.00
2013-10-2,46.1,38.4,34.0,36.0,33.6,32.0,93,83,65,29.91,29.82,1,0,0,0.00
2013-10-3,50.6,39.9,31.5,38.0,33.4,30.0,94,79,54,29.83,29.58,1,0,0,0.00
2013-10-4,39.8,35.2,28.9,35.0,31.9,27.0,95,88,80,29.82,29.57,1,0,0,0.00
2013-10-5,44.3,35.5,26.6,36.0,31.7,25.0,96,87,70,29.84,29.66,5,1,0,0.00
2013-10-6,43.1,36.1,31.9,35.0,31.4,29.0,93,83,72,29.70,29.63,2,0,0,0.00
2013-10-7,37.0,33.9,32.3,34.0,32.2,31.0,97,93,88,29.84,29.70,3,0,0,0.00
2013-10-8,49.3,42.1,32.3,37.0,32.7,28.0,92,70,58,29.71,28.95,12,3,0,0.00
2013-10-9,40.5,36.9,34.6,37.0,35.0,33.0,95,92,82,29.67,28.96,4,1,0,0.00
2013-10-10,38.6,33.5,27.8,32.0,30.0,26.0,94,87,78,29.69,29.61,6,1,0,0.00
2013-10-11,44.6,36.1,31.0,35.0,31.4,29.0,93,83,67,29.81,29.66,1,0,0,0.00
2013-10-12,52.1,40.9,29.4,36.0,32.3,28.0,94,74,53,29.79,29.65,5,1,0,0.00
2013-10-13,48.1,45.7,38.8,37.0,32.7,31.0,92,61,54,29.65,29.36,6,1,0,0.00
2013-10-14,43.5,37.7,33.8,38.0,35.5,33.0,96,92,80,29.90,29.55,2,0,0,0.00
2013-10-15,47.7,40.8,34.7,40.0,36.1,33.0,95,84,66,29.91,29.78,4,0,0,0.00
2013-10-16,53.1,46.8,42.7,42.0,39.8,39.0,86,77,61,30.04,29.86,4,1,0,0.00
2013-10-17,48.8,44.0,40.8,45.0,40.0,37.0,92,85,80,29.94,29.66,2,0,0,0.00
2013-10-18,52.1,44.6,37.5,40.0,37.2,34.0,92,76,56,29.67,29.52,5,0,0,0.00
2013-10-19,54.4,45.9,36.9,41.0,33.6,30.0,87,63,50,29.54,29.26,8,2,0,0.00
2013-10-20,48.0,38.4,31.7,34.0,32.2,29.0,93,79,57,29.86,29.54,2,0,0,0.00
2013-10-21,36.4,30.7,26.1,30.0,27.5,24.0,94,88,75,30.08,29.86,2,0,0,0.00
2013-10-22,36.5,28.1,23.7,28.0,24.5,21.0,93,87,71,30.16,30.08,3,0,0,0.00
2013-10-23,29.7,25.7,22.2,27.0,23.9,21.0,95,92,90,30.14,29.87,2,0,0,0.00
2013-10-24,36.7,29.1,21.6,26.0,22.8,19.0,93,79,57,29.97,29.66,6,2,0,0.00
2013-10-25,39.1,31.6,25.0,29.0,24.4,22.0,90,75,61,30.14,29.68,2,0,0,0.00
2013-10-26,32.6,24.9,18.6,27.0,21.7,16.0,92,87,78,30.49,30.15,5,0,0,0.00
2013-10-27,40.9,37.0,31.5,37.0,27.4,23.0,90,69,55,30.32,29.63,6,1,0,0.00
2013-10-28,54.0,44.9,37.6,40.0,37.9,35.0,94,77,57,29.61,28.98,5,1,0,0.00
2013-10-29,38.6,34.6,28.0,37.0,32.9,27.0,96,93,84,29.49,29.23,5,0,0,0.00
2013-10-30,31.7,28.7,24.6,30.0,27.1,23.0,100,93,91,29.45,29.17,2,0,0,0.00
2013-10-31,27.4,24.1,18.6,26.0,22.8,17.0,95,94,93,29.68,29.24,1,0,0,0.00
2013-11-1,27.1,25.6,24.0,26.0,24.1,23.0,95,93,88,30.09,29.68,4,0,0,0.00
2013-11-2,27.0,23.8,17.5,24.0,21.2,15.0,100,90,85,30.09,29.79,4,0,0,0.00
2013-11-3,28.5,21.6,17.2,25.0,19.5,15.0,93,91,84,29.82,29.60,1,0,0,0.00
2013-11-4,26.5,20.7,16.4,24.0,18.9,15.0,94,92,88,29.60,29.42,1,0,0,0.00
2013-11-5,25.4,19.9,16.5,24.0,17.7,14.0,94,91,83,30.21,29.51,2,0,0,0.00
2013-11-6,19.0,13.1,9.0,15.0,10.2,5.0,92,88,83,30.32,30.12,6,0,0,0.00
2013-11-7,15.5,9.9,2.4,10.0,5.3,-1.0,86,81,76,30.11,29.91,5,1,0,0.00
2013-11-8,13.2,3.3,-4.9,11.0,0.3,-8.0,91,87,84,30.23,29.99,2,0,0,0.00
2013-11-9,24.2,20.6,12.0,22.0,17.9,10.0,92,89,79,30.13,29.72,2,0,0,0.00
2013-11-10,30.7,26.5,22.5,30.0,25.0,21.0,97,94,90,29.89,29.72,4,0,0,0.00
2013-11-11,22.4,11.5,1.2,21.0,9.6,-2.0,94,91,87,30.32,29.90,0,0,0,0.00
2013-11-12,12.8,9.2,6.7,11.0,6.9,4.0,92,90,87,30.33,30.06,1,0,0,0.00
2013-11-13,40.8,19.1,11.5,38.0,17.0,8.0,100,91,83,30.06,29.59,6,0,0,0.00
2013-11-14,41.5,31.5,20.3,35.0,27.0,14.0,94,84,73,30.05,29.59,18,3,0,0.00
2013-11-15,20.2,10.7,5.2,14.0,7.5,2.0,90,87,76,30.14,30.04,3,0,0,0.00
2013-11-16,16.0,9.0,-6.3,14.0,6.4,-10.0,91,88,84,30.37,30.08,2,0,0,0.00
2013-11-17,2.6,-1.7,-8.8,0.0,-4.8,-13.0,88,86,83,30.46,30.36,1,0,0,0.00
2013-11-18,4.1,2.5,0.9,1.0,-0.5,-2.0,88,87,87,30.36,30.20,1,0,0,0.00
2013-11-19,4.1,-5.4,-19.3,1.0,-9.0,-24.0,88,84,80,30.20,30.14,1,0,0,0.00
2013-11-20,-19.1,-24.0,-26.9,-23.0,-28.6,-32.0,81,78,77,30.41,30.20,0,0,0,0.00
2013-11-21,1.6,-18.9,-29.5,-1.0,-23.2,-35.0,87,80,76,30.37,29.59,0,0,0,0.00
2013-11-22,14.7,9.2,2.2,12.0,6.4,-1.0,97,88,86,29.59,29.24,0,0,0,0.00
2013-11-23,7.1,3.1,-1.1,5.0,-0.1,-5.0,97,86,84,29.94,29.45,0,0,0,0.00
2013-11-24,12.3,6.2,-1.7,12.0,3.4,-5.0,99,88,84,30.06,29.94,0,0,0,0.00
2013-11-25,12.5,4.9,-1.5,10.0,2.0,-5.0,90,88,85,30.09,29.95,0,0,0,0.00
2013-11-26,7.8,1.3,-4.3,6.0,-1.6,-8.0,90,87,85,30.09,29.97,0,0,0,0.00
2013-11-27,4.4,2.5,-3.4,1.0,-0.5,-7.0,88,87,86,30.08,29.89,0,0,0,0.00
2013-11-28,4.2,-2.5,-8.9,1.0,-5.8,-13.0,88,85,82,30.08,29.88,0,0,0,0.00
2013-11-29,-4.5,-8.5,-14.5,-8.0,-12.2,-18.0,85,84,81,30.38,30.09,0,0,0,0.00
2013-11-30,-7.8,-16.3,-23.2,-11.0,-20.4,-28.0,92,81,78,30.79,30.39,0,0,0,0.00
2013-12-1,-18.7,-21.3,-24.1,-23.0,-25.8,-29.0,81,79,78,30.84,30.79,0,0,0,0.00
2013-12-2,-6.1,-16.8,-22.3,-10.0,-21.0,-27.0,92,81,78,30.83,30.74,0,0,0,0.00
2013-12-3,8.5,2.0,-6.6,5.0,-1.2,-10.0,88,86,84,30.77,30.59,0,0,0,0.00
2013-12-4,8.5,0.3,-5.4,5.0,-2.9,-9.0,89,86,84,30.60,30.47,0,0,0,0.00
2013-12-5,21.0,12.3,4.1,19.0,9.8,1.0,92,89,86,30.49,30.42,0,0,0,0.00
2013-12-6,24.5,22.1,17.2,22.0,19.4,15.0,93,89,84,30.48,30.40,0,0,0,0.00
2013-12-7,27.0,24.3,18.4,24.0,21.9,17.0,94,90,84,30.41,30.28,0,0,0,0.00
2013-12-8,31.7,28.6,20.2,31.0,27.5,19.0,97,96,94,30.36,30.21,0,0,0,0.00
2013-12-9,31.1,28.5,25.7,30.0,27.6,25.0,97,96,95,30.24,30.12,0,0,0,0.00
2013-12-10,25.6,13.9,6.0,24.0,9.4,0.0,95,82,74,30.37,30.12,0,0,0,0.00
2013-12-11,6.9,4.5,1.6,0.0,-3.9,-7.0,78,68,63,30.34,30.08,11,2,0,0.00
2013-12-12,4.6,3.0,1.9,-2.0,-7.4,-10.0,83,62,58,30.08,29.86,12,5,0,0.00
2013-12-13,2.7,-2.0,-6.0,-4.0,-9.9,-13.0,73,69,62,29.86,29.33,7,2,0,0.00
2013-12-14,1.4,-0.8,-2.2,-2.0,-5.0,-8.0,85,82,70,29.42,29.22,4,0,0,0.00
2013-12-15,-1.8,-6.8,-14.8,-6.0,-10.8,-19.0,84,82,81,30.23,29.42,1,0,0,0.00
2013-12-16,-15.2,-24.5,-28.8,-19.0,-29.2,-34.0,82,78,76,30.45,30.24,0,0,0,0.00
2013-12-17,-7.3,-17.5,-25.4,-11.0,-21.8,-30.0,92,80,77,30.46,30.42,0,0,0,0.00
2013-12-18,-1.6,-7.5,-14.8,-6.0,-11.4,-19.0,85,83,80,30.43,29.88,0,0,0,0.00
2013-12-19,2.8,-1.5,-11.9,0.0,-4.9,-16.0,87,85,83,29.88,29.79,0,0,0,0.00
2013-12-20,4.6,1.6,-2.1,1.0,-1.7,-6.0,88,86,84,29.82,29.68,0,0,0,0.00
2013-12-21,13.9,7.8,-0.9,12.0,5.3,-4.0,100,89,86,29.73,29.62,0,0,0,0.00
2013-12-22,13.2,7.4,-3.2,11.0,4.9,-6.0,92,89,83,29.85,29.56,3,0,0,0.00
2013-12-23,8.8,1.2,-5.3,5.0,-2.3,-9.0,90,85,81,30.23,29.86,2,0,0,0.00
2013-12-24,-6.5,-17.8,-26.1,-10.0,-22.0,-31.0,85,81,77,30.26,30.08,0,0,0,0.00
2013-12-25,-26.0,-29.6,-34.5,-30.0,-34.6,-40.0,79,77,74,30.13,30.05,0,0,0,0.00
2013-12-26,-31.7,-35.5,-38.8,-37.0,-40.9,-45.0,76,74,72,30.21,30.12,0,0,0,0.00
2013-12-27,-27.2,-35.6,-39.2,-32.0,-41.0,-45.0,78,74,72,30.25,30.21,0,0,0,0.00
2013-12-28,2.6,-9.0,-27.7,0.0,-12.6,-33.0,88,84,77,30.22,30.09,0,0,0,0.00
2013-12-29,5.1,-3.4,-11.9,3.0,-6.8,-16.0,89,85,82,30.14,29.97,0,0,0,0.00
2013-12-30,-8.3,-11.6,-15.3,-12.0,-15.4,-20.0,85,83,81,29.96,29.75,1,0,0,0.00
2013-12-31,1.1,-6.4,-15.0,-2.0,-9.8,-19.0,88,85,81,29.84,29.53,0,0,0,0.00
2014-1-1,18.5,11.4,-1.3,17.0,9.2,-5.0,92,90,86,29.52,29.29,0,0,0,0.00
2014-1-2,9.3,4.5,-4.8,7.0,1.8,-8.0,89,88,85,30.11,29.52,0,0,0,0.00